Tracking 29747 objects as of 9-Oct-2024
HD Live streaming from Space Station
objects crossing your sky now

BREEZE-M DEB

Track BREEZE-M DEB now!
10-day predictions


NORAD ID: 48535
Int'l Code: 2008-011EA
Perigee: 541.1 km
Apogee: 26,667.3 km
Inclination: 50.5 °
Period: 468.3 minutes
Semi major axis: 19975 km
RCS: Unknown
Launch date: March 14, 2008
Source: Commonwealth of Independent States (former USSR) (CIS)
Launch site: TYURATAM MISSILE AND SPACE COMPLEX (TTMTR)

Note: This is SATELLITE DEBRIS
Your satellite tracking list
Your tracking list is empty




NASA's NSSDC Master Catalog

Two Line Element Set (TLE):
1 48535U 08011EA  24283.16074037  .00023269  00000-0  12221+0 0  9991
2 48535  50.4656 304.6308 6539674 230.4010  50.9530  3.07515063141128
Source of the keplerian elements: AFSPC